Content
SEND FEEDBACK

Daily
Averages
Monthly
Summary
France

LE HAVRE, FRANCE


Home > Europe > France
Elevation: 338 feet     Latitude: 49 31N     Longitude: 000 04E

WEATHER
 
SELECT A DAY
Number of Records: 186,146;   Date Range: 3/4/97 - 11/27/14
 
SHARE

PRINT THIS DATA

[ ← Previous Day ]
WEATHER ALMANAC - FEBRUARY 19, 2013
[ Next Day → ]
[ °C ]   °F
Weather ElementAverageHighLow
Temperature38.3 °F48.2 °F (3:30 pm)32 °F (4:00 am)
Dewpoint30.7 °F35.6 °F (7:00 pm)26.6 °F (4:30 pm)
Humidity76.1 %93 % (4:30 am)43 % (4:30 pm)
Barometer30.06 in30.09 in (12:30 am)30.04 in (2:30 pm)
Wind Speed6 mph8.1 mph (3:00 pm)
Weather ElementAverage
Visibility5.2 mi
Wind DirectionE (92.3 °)

Weather ElementTotal
Precipitation---
Heating Degree Days24.9 (Base 65)
Averaged from 47 records on February 19, 2013
WEATHER CONDITIONS BREAKOUT
WIND DIRECTION BREAKOUT
WEATHER BY HOUR - FEBRUARY 19, 2013
[ °C ]   °F
Local TimeTemperatureDewpointHumidityBarometerVisibilityWind DirectionWind SpeedGust SpeedPrecipitationEventsConditions
12:30 AM33.8 °F30.2 °F87 %30.09 in6.2 miEast (90°)5.8 mph
1:00 AM33.8 °F30.2 °F87 %30.09 in6.2 miEast (100°)4.6 mph
1:30 AM33.8 °F30.2 °F87 %30.09 in6.2 miESE (110°)4.6 mph
2:00 AM35.6 °F30.2 °F81 %30.09 in5.6 miESE (110°)4.6 mph
2:30 AM33.8 °F30.2 °F87 %30.09 in5.0 miEast (100°)5.8 mph
3:00 AM33.8 °F28.4 °F81 %30.09 in4.3 miEast (100°)5.8 mph
3:30 AM33.8 °F30.2 °F87 %30.06 in3.7 miESE (110°)5.8 mph
4:00 AM32.0 °F28.4 °F87 %30.06 in3.7 miEast (100°)4.6 mph
4:30 AM32.0 °F30.2 °F93 %30.06 in3.7 miEast (100°)6.9 mph
5:00 AM33.8 °F30.2 °F87 %30.06 in3.1 miESE (110°)5.8 mphMist
5:30 AM32.0 °F30.2 °F93 %30.06 in3.1 miEast (100°)5.8 mphMist
6:00 AM32.0 °F30.2 °F93 %30.06 inEast (100°)6.9 mphMist
6:30 AM32.0 °F30.2 °F93 %30.06 inESE (110°)5.8 mphMist
7:00 AM32.0 °F30.2 °F93 %30.06 inESE (110°)5.8 mphMist
7:30 AM32.0 °F30.2 °F93 %30.06 inESE (110°)5.8 mphMist
8:00 AM32.0 °F28.4 °F87 %30.06 inESE (110°)4.6 mphMist
8:30 AM32.0 °F30.2 °F93 %30.06 inEast (100°)5.8 mphMist
9:00 AM32.0 °F30.2 °F93 %30.09 inEast (90°)5.8 mphMist
9:30 AM33.8 °F30.2 °F87 %30.09 in3.1 miEast (90°)5.8 mphMist
10:00 AM35.6 °F32.0 °F87 %30.09 in3.7 miESE (110°)4.6 mph
10:30 AM39.2 °F32.0 °F75 %30.09 in4.3 miESE (110°)3.5 mph
11:00 AM39.2 °F30.2 °F70 %30.09 in5.6 miSE (130°)4.6 mph
11:30 AM41.0 °F32.0 °F70 %30.09 in5.6 miENE (70°)5.8 mph
12:00 PM42.8 °F32.0 °F66 %30.09 in6.2 miEast (90°)5.8 mph
12:30 PM44.6 °F32.0 °F61 %30.09 in6.2 miEast (90°)5.8 mph
1:00 PM44.6 °F30.2 °F57 %30.06 in6.2 miESE (110°)6.9 mph
1:30 PM44.6 °F30.2 °F57 %30.06 in6.2 miEast (100°)6.9 mph
2:00 PM46.4 °F30.2 °F53 %30.06 in6.2 miEast (80°)6.9 mph
2:30 PM46.4 °F30.2 °F53 %30.04 in6.2 miEast (90°)6.9 mph
3:00 PM46.4 °F30.2 °F53 %30.04 in6.2 miEast (90°)8.1 mph
3:30 PM48.2 °F30.2 °F50 %30.04 in6.2 miEast (90°)5.8 mph
4:00 PM48.2 °F28.4 °F46 %30.04 in6.2 miEast (90°)5.8 mph
4:30 PM48.2 °F26.6 °F43 %30.04 in6.2 miEast (100°)4.6 mph
5:00 PM48.2 °F33.8 °F58 %30.04 in6.2 miVariable3.5 mph
5:30 PM48.2 °F30.2 °F50 %30.04 in6.2 miEast (90°)3.5 mph
6:00 PM44.6 °F32.0 °F61 %30.04 in6.2 miEast (80°)4.6 mph
6:30 PM42.8 °F30.2 °F61 %30.04 in6.2 miENE (70°)4.6 mph
7:00 PM39.2 °F35.6 °F87 %30.04 in3.7 miNE (50°)8.1 mph
7:30 PM39.2 °F33.8 °F81 %30.04 in3.7 miENE (70°)5.8 mph
8:00 PM39.2 °F33.8 °F81 %30.04 in3.7 miENE (70°)8.1 mph
8:30 PM39.2 °F33.8 °F81 %30.04 in4.3 miEast (80°)6.9 mph
9:00 PM37.4 °F32.0 °F81 %30.04 in5.0 miEast (90°)6.9 mph
9:30 PM37.4 °F32.0 °F81 %30.04 in5.0 miEast (80°)8.1 mph
10:00 PM37.4 °F32.0 °F81 %30.04 in6.2 miEast (90°)8.1 mph
10:30 PM35.6 °F30.2 °F81 %30.04 in6.2 miEast (90°)8.1 mph
11:00 PM35.6 °F30.2 °F81 %30.06 in5.6 miEast (90°)6.9 mph
11:30 PM35.6 °F30.2 °F81 %30.06 in4.3 miEast (90°)8.1 mph
Hourly data recorded from LFOH, located miles away from Le Havre, France







STORIES FROM OUR PARTNERS